Laredo, TX

3:55 AM CDT on June 29, 2017 (GMT -0500)
Laredo International

Weather History for KLRD - September, 2013

Change the Weather History Date:

Monday, September 2, 2013

  Actual Average Record
Temperature  
Mean Temperature 88 °F 86 °F  
Max Temperature 102 °F 97 °F 106 °F (1912)
Min Temperature 74 °F 76 °F 55 °F (1923)
Degree Days  
Heating Degree Days 0 0  
Month to date heating degree days 0 0  
Since 1 July heating degree days 0 0  
Cooling Degree Days 23 21  
Month to date cooling degree days 49 43  
Year to date cooling degree days 3457 3286  
Growing Degree Days 37 (Base 50)    
Moisture  
Dew Point 69 °F    
Average Humidity 60    
Maximum Humidity 82    
Minimum Humidity 27    
Precipitation  
Precipitation 0.08 in 0.11 in 1.98 in (1943)
Month to date precipitation 0.08 0.22  
Year to date precipitation 11.84 13.21  
Sea Level Pressure  
Sea Level Pressure 29.88 in    
Wind  
Wind Speed 9 mph (SSE)    
Max Wind Speed 38 mph    
Max Gust Speed 44 mph    
Visibility 10 miles    
Events Rain    
T = Trace of Precipitation, MM = Missing Value Source: NWS Daily Summary

Daily Weather History Graph

Daily Weather History Graph

Search for Another Location

Airport or City:

Trip Planner

Search our weather history database for the weather conditions in past years. The results will help you decide how hot, cold, wet, or windy it might be!

Date:

Astronomy

Sep. 02, 2013 Rise Set
Actual Time 7:17 AM CDT 7:56 PM CDT
Civil Twilight 6:53 AM CDT 8:20 PM CDT
Nautical Twilight 6:25 AM CDT 8:48 PM CDT
Astronomical Twilight 5:57 AM CDT 9:16 PM CDT
Moon 4:44 AM CDT (9/2) 6:05 PM CDT (9/2)
Length of Visible Light 13h 26m
Length of Day
12h 39m
Waning Crescent, 8% of the Moon is Illuminated
Sep 2
Waning Crescent
Sep 5
New
Sep 12
First Quarter
Sep 19
Full
Sep 26
Last Quarter

Hourly Weather History & Observations

Time (CDT) Temp. Heat Index Dew Point Humidity Pressure Visibility Wind Dir Wind Speed Gust Speed Precip Events Conditions
12:56 AM 86.9 °F 91.0 °F 68.9 °F 55% 29.87 in 10.0 mi SE 12.7 mph - N/A   Clear
1:56 AM 86.0 °F 89.7 °F 68.9 °F 56% 29.87 in 10.0 mi SSE 13.8 mph - N/A   Clear
2:56 AM 83.8 °F 87.5 °F 68.9 °F 61% 29.87 in 10.0 mi SSE 15.0 mph - N/A   Clear
3:56 AM 82.9 °F 86.3 °F 68.9 °F 62% 29.87 in 10.0 mi SSE 10.4 mph - N/A   Clear
4:56 AM 81.9 °F 85.2 °F 68.9 °F 65% 29.87 in 10.0 mi SSE 10.4 mph - N/A   Clear
5:56 AM 81.0 °F 84.7 °F 70.9 °F 71% 29.86 in 10.0 mi SSE 10.4 mph - N/A   Clear
6:56 AM 79.9 °F - 72.0 °F 77% 29.88 in 10.0 mi SSE 9.2 mph - N/A   Clear
7:56 AM 81.0 °F 85.2 °F 72.0 °F 74% 29.89 in 10.0 mi SSE 10.4 mph - N/A   Clear
8:56 AM 82.9 °F 88.5 °F 72.9 °F 71% 29.90 in 10.0 mi SSE 10.4 mph - N/A   Clear
9:56 AM 86.9 °F 94.1 °F 72.9 °F 63% 29.91 in 10.0 mi SSE 9.2 mph - N/A   Clear
10:56 AM 90.0 °F 96.9 °F 72.0 °F 55% 29.93 in 10.0 mi South 5.8 mph - N/A   Clear
11:56 AM 91.9 °F 98.4 °F 70.9 °F 50% 29.93 in 10.0 mi SSE 4.6 mph - N/A   Clear
12:56 PM 95.9 °F 101.3 °F 68.9 °F 41% 29.91 in 10.0 mi SW 9.2 mph 17.3 mph N/A   Partly Cloudy
1:56 PM 97.0 °F 101.0 °F 66.9 °F 37% 29.88 in 10.0 mi Calm Calm - N/A   Mostly Cloudy
2:56 PM 99.9 °F 101.5 °F 61.9 °F 29% 29.85 in 10.0 mi Calm Calm - N/A   Clear
3:56 PM 100.9 °F 102.7 °F 61.9 °F 28% 29.80 in 10.0 mi Calm Calm - N/A   Clear
4:56 PM 99.9 °F 99.9 °F 59.0 °F 26% 29.80 in 10.0 mi East 8.1 mph - N/A   Clear
5:56 PM 86.0 °F 87.6 °F 64.9 °F 49% 29.81 in 5.0 mi East 31.1 mph 43.7 mph N/A   Haze
6:56 PM 81.9 °F 85.6 °F 70.0 °F 67% 29.86 in 10.0 mi ESE 8.1 mph - 0.00 in Rain Light Rain
7:56 PM 77.0 °F - 72.0 °F 84% 29.90 in 10.0 mi SW 11.5 mph - 0.00 in Rain Light Rain
8:56 PM 75.9 °F - 70.0 °F 82% 29.90 in 10.0 mi South 5.8 mph - 0.00 in Rain Light Rain
9:56 PM 75.9 °F - 68.9 °F 79% 29.91 in 10.0 mi Calm Calm - 0.00 in   Clear
10:56 PM 74.8 °F - 68.9 °F 82% 29.94 in 10.0 mi ESE 8.1 mph - 0.00 in   Clear
11:56 PM 75.9 °F - 68.9 °F 79% 29.93 in 10.0 mi Calm Calm - N/A   Clear